Regional Weather Roundup
Issued by NWS

Home | Current Version | Previous Version | Graphics & Text | Print | Product List | Glossary On
Versions: 1 2 3 4 5 6 7 8 9 10 11 12 13 14 15 16 17 18 19 20 21 22 23 24 25 26 27 28 29 30 31 32 33 34 35 36 37 38 39 40 41 42 43 44 45 46 47 48 49 50
000
ASUS43 KFSD 261402
RWRSD

WEATHER ROUNDUP FOR SOUTH DAKOTA
NATIONAL WEATHER SERVICE SIOUX FALLS SD
800 AM CST FRI DEC 26 2014

NOTE: "FAIR" INDICATES FEW OR NO CLOUDS BELOW 12,000 FEET WITH NO
SIGNIFICANT WEATHER AND/OR OBSTRUCTIONS TO VISIBILITY.


SDZ001>005-009-010-012>017-261500-
NORTHWEST AND NORTH CENTRAL SOUTH DAKOTA

CITY           SKY/WX    TMP DP  RH WIND       PRES   REMARKS
BUFFALO          N/A     19  13  77 N8        30.01R WCI   9
FAITH            N/A     20  13  74 N12       30.10R WCI   8
MOBRIDGE       FLURRIES  23  18  81 N12       30.10R WCI  12
$$

SDZ012>016-024>037-041>051-057-063-072>074-261500-
SOUTHWEST AND SOUTH CENTRAL SOUTH DAKOTA

CITY           SKY/WX    TMP DP  RH WIND       PRES   REMARKS
RAPID CTY ARPT CLOUDY    19  15  84 N12       30.07R WCI   7
PIERRE         CLOUDY    24  19  81 N15       30.10R WCI  11
CUSTER         CLOUDY    14  12  92 CALM      29.91R
ELLSWORTH AFB  CLOUDY    19  15  83 N8        30.06  WCI   9
PHILIP         CLOUDY    23  17  78 N9        30.11R WCI  13
PINE RIDGE     CLOUDY    20  15  81 N8        30.06R WCI  10
WINNER         MIX PCPN  25  22  88 N12       30.07R WCI  14
$$

SDZ004>011-016>023-039-040-261500-
NORTHEAST SOUTH DAKOTA

CITY           SKY/WX    TMP DP  RH WIND       PRES   REMARKS
ABERDEEN       CLOUDY    24  20  84 N9        30.12R WCI  14
WATERTOWN      CLOUDY    22  18  85 N18G24    30.03R WCI   7
SISSETON         N/A     23  21  92 N16       30.09R WCI  10
$$

SDZ017-020-022-023-036>040-048>070-261500-
SOUTHEAST SOUTH DAKOTA

CITY           SKY/WX    TMP DP  RH WIND       PRES   REMARKS
SIOUX FALLS    CLOUDY    27  23  85 N18       30.00S WCI  14
HURON          FLURRIES  24  22  91 N15       30.09R WCI  11
MITCHELL       CLOUDY    25  22  88 N13       30.07S WCI  14
YANKTON        MOCLDY    27  21  80 N18G25    30.02R WCI  13
$$

ABBREVIATIONS USED IN REMARKS
   TC - TEMPERATURE IN CELSIUS
  WCI - WIND CHILL INDEX
   HX - HEAT INDEX
  VSB - VISIBILITY



USA.gov is the U.S. government's official web portal to all federal, state and local government web resources and services.